This demonstration page uses our WeatherBlox Daily Observations layout. Learn more.

Hourly Observations for January 17, 2015

Temp ( °F °C ) Dew Point ( °F °C ) Humidity (%) Winds ( mph kmh ) Pressure ( in mb ) Visibility ( mi km ) Precip ( " mm )
12:15 am 00:15 Clear 40 4.2 29 -1.8 65 65 W 6 9 29.83 1010 10 16.0934 0 0
12:35 am 00:35 Clear 40 4.5 28 -2 63 63 WNW 7 11 29.83 1010 10 16.0934 0 0
12:55 am 00:55 Clear 41 5.1 26 -3.2 55 55 NW 10 17 29.83 1010 10 16.0934 0 0
1:15 am 01:15 Clear 44 6.4 25 -4 48 48 WNW 10 17 29.8 1009 10 16.0934 0 0
1:35 am 01:35 Clear 44 6.5 26 -3.4 50 50 WNW 10 17 29.77 1008 10 16.0934 0 0
1:55 am 01:55 Clear 44 6.8 25 -3.7 47 47 WNW 10 17 29.77 1008 10 16.0934 0 0
2:15 am 02:15 Clear 44 6.5 27 -3 51 51 W 9 15 29.77 1008 10 16.0934 0 0
2:35 am 02:35 Clear 44 6.8 27 -2.7 51 51 WNW 12 19 29.77 1008 10 16.0934 0 0
2:55 am 02:55 Clear 46 8 28 -2.3 49 49 WNW 16 26 29.8 1009 10 16.0934 0 0
3:15 am 03:15 Clear 47 8.6 28 -2.1 47 47 NW 21 33 29.8 1009 10 16.0934 0 0
3:35 am 03:35 Clear 46 7.8 29 -1.7 51 51 NW 18 30 29.8 1009 10 16.0934 0 0
3:55 am 03:55 Clear 46 7.7 29 -1.5 53 53 NW 21 33 29.8 1009 10 16.0934 0 0
4:15 am 04:15 Clear 45 7 29 -1.5 55 55 NW 15 24 29.83 1010 10 16.0934 0 0
4:35 am 04:35 Clear 43 6 30 -1.3 60 60 NW 17 28 29.83 1010 10 16.0934 0 0
4:55 am 04:55 Clear 42 5.4 30 -1.2 63 63 NW 15 24 29.83 1010 10 16.0934 0 0
5:15 am 05:15 Clear 40 4.7 30 -1.2 66 66 NW 13 20 29.85 1011 10 16.0934 0 0
5:35 am 05:35 Clear 40 4.5 30 -1.2 67 67 NW 10 17 29.85 1011 10 16.0934 0 0
5:55 am 05:55 Clear 40 4.5 30 -1.1 67 67 NW 14 22 29.85 1011 10 16.0934 0 0
6:15 am 06:15 Clear 41 5.1 30 -1 65 65 NW 15 24 29.88 1012 10 16.0934 0 0
6:35 am 06:35 Clear 40 4.5 30 -1.1 67 67 NW 9 15 29.85 1011 10 16.0934 0 0
6:55 am 06:55 Clear 37 3 29 -1.5 73 73 NW 6 9 29.91 1013 10 16.0934 0 0
7:15 am 07:15 Clear 36 2.1 29 -1.8 76 76 NW 7 11 29.91 1013 10 16.0934 0 0
7:35 am 07:35 Clear 37 2.9 29 -1.4 74 74 WNW 9 15 29.94 1014 10 16.0934 0 0
7:55 am 07:55 Clear 37 3 30 -1 75 75 WNW 12 19 29.94 1014 10 16.0934 0 0
8:15 am 08:15 Sunny 37 3 30 -1 75 75 W 10 17 29.97 1015 10 16.0934 0 0
8:35 am 08:35 Sunny 37 2.9 30 -1 76 76 WNW 10 17 30 1016 10 16.0934 0 0
8:55 am 08:55 Sunny 38 3.6 31 -0.5 75 75 WNW 14 22 30 1016 10 16.0934 0 0
9:15 am 09:15 Sunny 40 4.6 32 -0.2 71 71 NW 16 26 30.03 1017 10 16.0934 0 0
9:35 am 09:35 Sunny 42 5.7 31 -0.7 64 64 NW 17 28 30 1016 10 16.0934 0 0
9:55 am 09:55 Sunny 43 6.2 30 -1 60 60 NW 18 30 30.03 1017 10 16.0934 0 0
10:15 am 10:15 Sunny 43 6.3 30 -1.1 59 59 NW 20 31 30.03 1017 10 16.0934 0 0
10:35 am 10:35 Sunny 44 6.8 29 -1.6 55 55 NW 21 33 30.06 1018 10 16.0934 0 0
10:55 am 10:55 Sunny 46 7.8 26 -3.4 45 45 NNW 17 28 30.06 1018 10 16.0934 0 0
11:15 am 11:15 Sunny 47 8.5 24 -4.3 40 40 NNW 22 35 30.06 1018 10 16.0934 0 0
11:35 am 11:35 Sunny 48 9.1 23 -5.2 36 36 NNW 18 30 30.06 1018 10 16.0934 0 0
11:55 am 11:55 Sunny 49 9.3 23 -5.2 36 36 NW 21 33 30.06 1018 10 16.0934 0 0
12:15 pm 12:15 Sunny 49 9.5 24 -4.7 37 37 NW 20 31 30.03 1017 10 16.0934 0 0
12:35 pm 12:35 Sunny 49 9.7 26 -3.5 40 40 NW 24 39 30.03 1017 10 16.0934 0 0
12:55 pm 12:55 Sunny 49 9.7 28 -2.5 43 43 WNW 22 35 30.03 1017 10 16.0934 0 0
1:15 pm 13:15 Sunny 50 9.8 27 -3 41 41 WNW 20 31 30.03 1017 10 16.0934 0 0
1:35 pm 13:35 Sunny 50 10.1 26 -3.3 39 39 WNW 26 43 30.03 1017 10 16.0934 0 0
1:55 pm 13:55 Sunny 51 10.5 20 -6.4 30 30 NW 24 39 30.03 1017 10 16.0934 0 0
2:15 pm 14:15 Sunny 51 10.3 16 -8.8 25 25 NW 26 43 30.03 1017 10 16.0934 0 0
2:35 pm 14:35 Sunny 51 10.3 16 -8.7 26 26 NW 30 48 30.03 1017 10 16.0934 0 0
2:55 pm 14:55 Sunny 50 10.1 16 -8.9 26 26 NW 25 41 30.03 1017 10 16.0934 0 0
3:15 pm 15:15 Sunny 50 10 16 -9.1 25 25 NW 25 41 30.03 1017 10 16.0934 0 0
3:35 pm 15:35 Sunny 49 9.7 15 -9.2 26 26 NW 20 31 30.06 1018 10 16.0934 0 0
3:55 pm 15:55 Sunny 49 9.3 16 -9 27 27 NW 23 37 30.09 1019 10 16.0934 0 0
4:15 pm 16:15 Sunny 48 9 16 -9 27 27 NW 22 35 30.09 1019 10 16.0934 0 0
4:35 pm 16:35 Sunny 47 8.5 17 -8.4 30 30 NW 18 30 30.09 1019 10 16.0934 0 0
4:55 pm 16:55 Sunny 46 7.7 17 -8.3 31 31 NW 14 22 30.09 1019 10 16.0934 0 0
5:15 pm 17:15 Sunny 43 6.2 17 -8.1 35 35 NW 12 19 30.12 1020 10 16.0934 0 0
5:35 pm 17:35 Sunny 42 5.6 17 -8.3 36 36 WNW 9 15 30.12 1020 10 16.0934 0 0
5:55 pm 17:55 Clear 41 4.8 18 -7.7 40 40 W 7 11 30.12 1020 10 16.0934 0 0
6:15 pm 18:15 Clear 37 3 19 -7.5 46 46 W 10 17 30.15 1021 10 16.0934 0 0
6:35 pm 18:35 Clear 35 1.8 18 -7.6 50 50 W 10 17 30.15 1021 10 16.0934 0 0
6:55 pm 18:55 Clear 36 2.1 19 -7.5 49 49 W 9 15 30.15 1021 10 16.0934 0 0
7:15 pm 19:15 Clear 36 2 19 -7.2 51 51 W 9 15 30.15 1021 10 16.0934 0 0
7:35 pm 19:35 Clear 38 3.1 20 -6.7 49 49 W 12 19 30.15 1021 10 16.0934 0 0
7:55 pm 19:55 Clear 36 2.3 19 -7 51 51 W 10 17 30.15 1021 10 16.0934 0 0
8:15 pm 20:15 Clear 36 2.1 20 -6.5 53 53 W 10 17 30.15 1021 10 16.0934 0 0
8:35 pm 20:35 Clear 34 1 20 -6.4 58 58 W 10 17 30.15 1021 10 16.0934 0 0
8:55 pm 20:55 Clear 34 1 21 -6 60 60 W 13 20 30.18 1022 10 16.0934 0 0
9:15 pm 21:15 Clear 33 0.7 22 -5.6 63 63 W 9 15 30.15 1021 10 16.0934 0 0
9:35 pm 21:35 Clear 33 0.8 22 -5.4 64 64 W 10 17 30.15 1021 10 16.0934 0 0
9:55 pm 21:55 Clear 33 0.8 23 -5.2 65 65 W 13 20 30.15 1021 10 16.0934 0 0
10:15 pm 22:15 Clear 33 0.5 23 -5.2 66 66 W 13 20 30.15 1021 10 16.0934 0 0
10:35 pm 22:35 Clear 34 1 23 -5.2 64 64 W 12 19 30.15 1021 10 16.0934 0 0
10:55 pm 22:55 Clear 33 0.4 22 -5.3 66 66 WSW 10 17 30.18 1022 10 16.0934 0 0
11:15 pm 23:15 Clear 33 0.3 22 -5.4 66 66 W 9 15 30.18 1022 10 16.0934 0 0
11:35 pm 23:35 Clear 35 1.4 22 -5.3 61 61 W 12 19 30.15 1021 10 16.0934 0 0
11:55 pm 23:55 Clear 34 1 22 -5.4 63 63 WSW 13 20 30.15 1021 10 16.0934 0 0

Powered by AerisWeather